Location: Arroyo Grande
(40.2671°N, 4.2512°W)
Time: 15:09:25
(UTC+00:00)

Cosmos 841 Rocket - Pass Details

Date: 03 February 2023
Orbit: 746 x 771 km, 74.0° (Epoch: 22 March)

Event Time Altitude Azimuth Distance (km) Brightness Sun altitude
Rises 18:31:16 0° 351° (N) 3,253 6.7 -10.6°
Reaches altitude 10° 18:34:03 10° 4° (N) 2,321 5.8 -11.1°
Maximum altitude 18:38:26 26° 61° (ENE) 1,479 4.4 -12.0°
Enters shadow 18:42:39 11° 116° (ESE) 2,259 5.5 -12.7°
